sat.trackr.live / text

‹ back to catalog

STARLINK-2156

NORAD 47742 · 2021-017W

PAYLOAD ACTIVE UNKNOWN

§ Identity

Operator
Country
US
Launch date
2021-03-04
Launch site
AFETR
Launch vehicle
Mass (kg)
RCS (m²)

Purposes: comms

External: N2YO · Heavens-Above · Gunter

§ Orbital elements

Epoch: 2026-09-19T21:40:56.579232Z

Period
94.01 min
Inclination
53.1609°
Eccentricity
0.0001702
Mean motion
15.31685197 rev/d
Perigee alt
469.6 km
Apogee alt
471.9 km
Semi-major
6,848.9 km
B*
1.9739e-4
RAAN
10.3283°
Arg perigee
69.5797°
Mean anomaly
290.5387°
Rev number
30,779

§ Raw data

STARLINK-21561 47742U 21017W   26262.90343263  .00005762  00000+0  19739-3 0  99942 47742  53.1609  10.3283 0001702  69.5797 290.5387 15.31685197307796

JSON: /api/v1/satellites/47742 · /tle

For live sub-satellite position, see the globe view (requires WebGL).

§ Visibility from observer

Set your observer location to see the next 7 days of passes ≥ 10°. The values pass through the URL so the page stays shareable.

No JS? Fill the form by hand. The geolocation button needs JavaScript.